[[{"header":{"parameterUnit":"m.s-1","parameterCategory":2,"la1":30.2991,"la2":30.254,"lo1":-89.0895,"lo2":-89.0444,"dy":0.0017,"dx":0.0017,"nx":28,"ny":28,"refTime":"2026-02-14T03:00:00:Z","depth":"0","parameterNumber":2,"parameterNumberName":"U-component_of_CURRENTS"},"data":[0,0,0,0,0,0,0,0,0,0,0,0,0,0,0,0,0,0,0,0,0,0,0,0,0,0,0,0,0,0,0,0,0,0,0,0,0,0,0,0,0,0,0,0,0,0,0,0,0,0,0,0,0,0,0,0,0,0,-0.2813,-0.2813,0,-0.2834,-0.2834,-0.2834,-0.2807,-0.2807,-0.2806,-0.2805,-0.2785,-0.2785,-0.2785,0,0,0,0,0,0,0,0,0,0,0,0,0,-0.2743,-0.2744,-0.2813,-0.2813,-0.2814,-0.2834,-0.2834,-0.2834,-0.2808,-0.2807,-0.2806,-0.2805,-0.2784,-0.2785,-0.2785,0,0,0,0,0,0,0,0,0,0,0,0,0,-0.2767,-0.2745,-0.2812,-0.2805,-0.2804,-0.2834,-0.2834,-0.2834,-0.2808,-0.2807,-0.2805,-0.2804,-0.2784,-0.2785,-0.2785,-0.2809,0,0,-0.2786,-0.2786,0,0,0,0,0,0,0,0,-0.2766,-0.277,-0.2805,-0.2805,-0.2805,-0.2819,-0.2802,-0.2825,-0.2808,-0.2804,-0.2805,-0.2804,-0.2795,-0.2794,-0.2798,-0.2808,-0.2807,-0.2786,-0.2786,-0.2786,-0.2786,0,0,0,0,0,0,0,-0.2764,-0.2769,-0.2819,-0.2806,-0.2806,-0.2798,-0.28,-0.2806,-0.2803,-0.2804,-0.2803,-0.281,-0.2794,-0.2798,-0.2797,-0.2807,-0.2786,-0.2786,-0.2786,-0.2786,-0.2812,-0.2812,0,0,0,0,0,0,-0.2769,-0.2767,-0.2818,-0.2819,-0.2785,-0.2801,-0.2803,-0.2814,-0.2803,-0.2802,-0.2811,-0.2808,-0.2798,-0.2797,-0.2796,-0.2808,-0.2786,-0.2786,-0.2786,-0.2811,-0.2812,-0.2813,0,0,0,0,0,0,-0.2767,-0.2773,-0.2817,-0.2795,-0.2801,-0.2803,-0.2816,-0.2815,-0.2815,-0.2809,-0.2806,-0.2811,-0.2797,-0.2796,-0.2798,-0.2807,-0.2786,-0.2786,-0.2811,-0.2812,-0.2812,-0.2842,0,0,0,0,0,0,-0.2765,-0.2773,-0.2777,-0.2796,-0.2802,-0.2836,-0.2817,-0.2816,-0.2822,-0.2819,-0.2809,-0.2806,-0.2796,-0.2798,-0.2798,-0.2807,-0.2787,-0.281,-0.2811,-0.2812,-0.284,-0.2844,-0.2847,0,0,0,0,0,-0.2763,-0.2776,-0.2777,-0.2783,-0.281,-0.2837,-0.2839,-0.2835,-0.2824,-0.2829,-0.2819,-0.2806,-0.2804,-0.2799,-0.2799,-0.2808,-0.281,-0.2811,-0.2812,-0.2839,-0.2843,-0.2847,0,0,0,0,0,0,-0.2747,-0.2776,-0.2776,-0.2797,-0.2816,-0.2833,-0.2838,-0.2839,-0.2837,-0.2829,-0.2817,-0.2814,-0.2819,-0.2812,-0.2806,-0.2819,-0.2804,-0.2806,-0.2825,-0.2828,-0.2832,-0.2833,-0.2787,0,0,0,0,0,-0.2748,-0.2762,-0.2791,-0.2804,-0.2816,-0.2827,-0.2836,-0.2838,-0.2843,-0.2841,-0.2835,-0.2827,-0.2827,-0.2826,-0.2824,-0.2836,-0.2815,-0.2841,-0.2844,-0.2847,-0.2848,-0.2827,-0.2828,-0.2817,-0.2817,-0.2817,0,0,-0.2743,-0.2761,-0.2768,-0.2801,-0.2812,-0.2837,-0.2828,-0.2847,-0.2861,-0.284,-0.2848,-0.284,-0.2833,-0.2841,-0.2842,-0.2835,-0.2838,-0.2848,-0.2851,-0.285,-0.2829,-0.283,-0.2831,-0.2818,-0.2817,-0.2817,0,0,-0.2747,-0.2761,-0.2776,-0.2799,-0.2825,-0.2839,-0.2847,-0.2869,-0.2869,-0.2884,-0.2869,-0.2865,-0.287,-0.2863,-0.2862,-0.2884,-0.2856,-0.2885,-0.2902,-0.2882,-0.2882,-0.2883,-0.2851,-0.2849,-0.2886,-0.2886,-0.2886,0,-0.2738,-0.2764,-0.2783,-0.281,-0.2826,-0.2843,-0.2865,-0.288,-0.2896,-0.2897,-0.2888,-0.2886,-0.288,-0.2886,-0.2892,-0.2891,-0.287,-0.2888,-0.2885,-0.2885,-0.2885,-0.2853,-0.2849,-0.2887,-0.2887,-0.2887,-0.2887,0,-0.2756,-0.2779,-0.2792,-0.2828,-0.2852,-0.2873,-0.2904,-0.2918,-0.292,-0.2927,-0.293,-0.2922,-0.2916,-0.2918,-0.2913,-0.2914,-0.2897,-0.2891,-0.2874,-0.2888,-0.2853,-0.2849,-0.289,-0.2889,-0.2888,-0.2888,0,0,-0.2724,-0.279,-0.2792,-0.2812,-0.2862,-0.2881,-0.2914,-0.2941,-0.2952,-0.2959,-0.2966,-0.2966,-0.2953,-0.295,-0.2942,-0.293,-0.2911,-0.2914,-0.2912,-0.288,-0.2857,-0.279,-0.2779,-0.2904,-0.2904,-0.2904,-0.2831,0,-0.2725,-0.2772,-0.2807,-0.2845,-0.2869,-0.2904,-0.2935,-0.2961,-0.2974,-0.2987,-0.2978,-0.2981,-0.2969,-0.2964,-0.2952,-0.2929,-0.2903,-0.2931,-0.2851,-0.2848,-0.2785,-0.2773,-0.2677,-0.26,-0.2826,-0.2826,-0.2825,0,-0.272,-0.2755,-0.2793,-0.2852,-0.2865,-0.2891,-0.293,-0.2961,-0.2992,-0.3001,-0.3002,-0.2999,-0.2992,-0.2976,-0.2929,-0.2948,-0.2901,-0.2876,-0.2872,-0.2797,-0.2774,-0.2624,-0.2583,-0.2558,-0.2818,-0.2819,-0.2819,0,-0.2668,-0.2737,-0.2762,-0.2784,-0.2858,-0.2874,-0.2908,-0.2951,-0.2973,-0.3002,-0.3012,-0.3007,-0.2994,-0.2957,-0.2907,-0.2917,-0.2844,-0.2847,-0.2737,-0.2731,-0.2627,-0.2612,-0.2548,-0.2793,-0.2793,-0.2793,-0.2794,0,-0.2645,-0.2662,-0.2739,-0.2752,-0.2777,-0.2843,-0.2868,-0.2904,-0.2955,-0.2971,-0.3005,-0.3006,-0.2987,-0.2949,-0.2906,-0.2804,-0.2834,-0.273,-0.2706,-0.2634,-0.2621,-0.2577,-0.2595,-0.2791,-0.2791,-0.2792,-0.2792,0,-0.2569,-0.2627,-0.2654,-0.2731,-0.275,-0.2762,-0.2835,-0.2856,-0.2919,-0.2941,-0.295,-0.2988,-0.2941,-0.2904,-0.2836,-0.2781,-0.2652,-0.2656,-0.2568,-0.2534,-0.2411,-0.2435,-0.2333,-0.2267,-0.2524,-0.2522,-0.2521,0,-0.253,-0.2538,-0.2609,-0.2621,-0.265,-0.2689,-0.2716,-0.2808,-0.2839,-0.292,-0.2921,-0.2909,-0.2864,-0.2753,-0.2669,-0.256,-0.2546,-0.2406,-0.2406,-0.2379,-0.2389,-0.2403,-0.2357,-0.2277,-0.2273,-0.227,-0.2268,0,-0.2439,-0.2465,-0.2488,-0.2517,-0.2544,-0.2578,-0.2631,-0.2653,-0.2759,-0.2783,-0.2797,-0.2773,-0.2703,-0.2558,-0.2439,-0.2368,-0.2349,-0.234,-0.2333,-0.2202,-0.2192,-0.2125,-0.2355,-0.2241,-0.2244,-0.2246,-0.2247,-0.2248,-0.2348,-0.234,-0.2372,-0.2382,-0.2416,-0.2429,-0.241,-0.2484,-0.25,-0.2505,-0.26,-0.2533,-0.2469,-0.2291,-0.2222,-0.2082,-0.2141,-0.2018,-0.2051,-0.207,-0.1998,-0.2166,-0.2018,-0.2019,-0.202,-0.2021,-0.2022,0,-0.222,-0.2227,-0.2235,-0.2243,-0.2219,-0.2285,-0.2316,-0.2272,-0.2233,-0.2287,-0.2267,-0.2224,-0.2083,-0.2042,-0.1919,-0.1825,-0.1788,-0.1784,-0.1791,-0.1758,-0.1908,-0.1889,-0.1681,-0.1681,-0.1681,-0.1681,-0.1681,-0.1681,-0.2152,-0.2109,-0.2113,-0.2027,-0.2031,-0.1945,-0.1923,-0.1885,-0.1887,-0.1822,-0.183,-0.1888,-0.1874,-0.1933,-0.1793,-0.1705,-0.1661,-0.1609,-0.1634,-0.1766,-0.1791,-0.1815,-0.18,-0.1577,-0.1577,-0.1419,-0.1418,-0.1417]},{"header":{"parameterUnit":"m.s-1","parameterCategory":2,"la1":30.2991,"la2":30.254,"lo1":-89.0895,"lo2":-89.0444,"dy":0.0017,"dx":0.0017,"nx":28,"ny":28,"refTime":"2026-02-14T03:00:00:Z","depth":"0","parameterNumber":3,"parameterNumberName":"V-component_of_CURRENTS"},"data":[0,0,0,0,0,0,0,0,0,0,0,0,0,0,0,0,0,0,0,0,0,0,0,0,0,0,0,0,0,0,0,0,0,0,0,0,0,0,0,0,0,0,0,0,0,0,0,0,0,0,0,0,0,0,0,0,0,0,-0.0319,-0.0319,0,-0.0254,-0.0253,-0.0252,-0.0205,-0.0205,-0.0205,-0.0205,-0.0099,-0.0097,-0.0094,0,0,0,0,0,0,0,0,0,0,0,0,0,-0.0355,-0.0355,-0.032,-0.0319,-0.0318,-0.0254,-0.0253,-0.0252,-0.0206,-0.0205,-0.0205,-0.0205,-0.01,-0.0097,-0.0094,0,0,0,0,0,0,0,0,0,0,0,0,0,-0.0319,-0.0355,-0.032,-0.0288,-0.0285,-0.0254,-0.0253,-0.0252,-0.0206,-0.0205,-0.0205,-0.0204,-0.0101,-0.0097,-0.0093,-0.0078,0,0,-0.0082,-0.008,0,0,0,0,0,0,0,0,-0.0321,-0.0317,-0.0293,-0.029,-0.0286,-0.0239,-0.0227,-0.0192,-0.0206,-0.0234,-0.0205,-0.0204,-0.0143,-0.0136,-0.0123,-0.0073,-0.0068,-0.0081,-0.0079,-0.0077,-0.0076,0,0,0,0,0,0,0,-0.0323,-0.0319,-0.0292,-0.0293,-0.0288,-0.026,-0.0255,-0.022,-0.019,-0.0232,-0.0229,-0.0223,-0.0141,-0.0127,-0.012,-0.0067,-0.0081,-0.0078,-0.0076,-0.0074,0.0005,0.0005,0,0,0,0,0,0,-0.0337,-0.0322,-0.0294,-0.0291,-0.0304,-0.026,-0.0254,-0.0253,-0.0191,-0.0182,-0.0224,-0.0221,-0.0134,-0.0125,-0.0116,-0.0091,-0.0077,-0.0074,-0.0072,0.0005,0.0005,0.0004,0,0,0,0,0,0,-0.0338,-0.0335,-0.0297,-0.0305,-0.0299,-0.0261,-0.026,-0.0252,-0.0239,-0.0186,-0.0175,-0.0218,-0.0133,-0.0122,-0.0088,-0.0087,-0.0072,-0.0069,0.0005,0.0005,0.0005,-0.0042,0,0,0,0,0,0,-0.0339,-0.0336,-0.0341,-0.0307,-0.0299,-0.0286,-0.026,-0.0251,-0.0237,-0.0233,-0.0178,-0.0167,-0.0132,-0.0094,-0.0084,-0.0081,-0.0066,0.0005,0.0005,0.0005,-0.004,-0.0044,-0.0047,0,0,0,0,0,-0.0341,-0.0353,-0.0342,-0.0338,-0.0307,-0.0286,-0.028,-0.025,-0.0237,-0.0236,-0.0197,-0.0169,-0.0089,-0.0091,-0.0079,-0.0075,0.0006,0.0005,0.0005,-0.0039,-0.0043,-0.0047,0,0,0,0,0,0,-0.0372,-0.0349,-0.0335,-0.034,-0.0317,-0.0279,-0.0276,-0.0255,-0.0224,-0.0221,-0.0169,-0.0156,-0.0127,-0.0097,-0.01,-0.0055,-0.0038,-0.0036,-0.0075,-0.0079,-0.0082,-0.0094,-0.0062,0,0,0,0,0,-0.0382,-0.0384,-0.0354,-0.0358,-0.035,-0.0314,-0.0302,-0.0283,-0.0251,-0.0237,-0.0197,-0.0156,-0.012,-0.0098,-0.0063,-0.0037,0.0003,-0.0028,-0.0031,-0.0034,-0.0037,0.0019,0.0021,0.0003,0.0003,0.0003,0,0,-0.0394,-0.0383,-0.0383,-0.0364,-0.0344,-0.0341,-0.0305,-0.0295,-0.0286,-0.023,-0.0207,-0.0167,-0.0117,-0.0088,-0.0072,-0.0061,-0.0007,-0.0035,-0.0038,-0.0038,0.0019,0.0021,0.0023,0.0003,0.0003,0.0003,0,0,-0.0427,-0.0411,-0.0426,-0.0411,-0.039,-0.0364,-0.0365,-0.0329,-0.0307,-0.0281,-0.0238,-0.0199,-0.0147,-0.0106,-0.008,-0.0081,-0.003,-0.0074,-0.0094,-0.004,-0.0038,-0.0036,0.0022,0.003,-0.0073,-0.0073,-0.0073,0,-0.0444,-0.0458,-0.0426,-0.0436,-0.0429,-0.038,-0.0392,-0.0362,-0.0318,-0.0297,-0.0283,-0.0196,-0.0155,-0.0106,-0.0108,-0.0088,-0.0049,-0.0083,-0.0044,-0.0041,-0.0038,0.0021,0.0031,-0.0075,-0.0075,-0.0074,-0.0074,0,-0.0488,-0.0496,-0.0503,-0.0498,-0.0483,-0.0485,-0.0442,-0.0421,-0.0388,-0.035,-0.0298,-0.0237,-0.0185,-0.0164,-0.0136,-0.0093,-0.007,-0.0057,-0.0035,-0.0039,0.0024,0.0034,-0.0078,-0.0077,-0.0077,-0.0076,0,0,-0.0534,-0.0537,-0.0538,-0.0548,-0.0518,-0.0512,-0.0492,-0.0455,-0.0436,-0.0381,-0.0348,-0.028,-0.0239,-0.0207,-0.0159,-0.0109,-0.005,-0.008,-0.0076,-0.0023,0.0075,0.0116,0.0133,-0.0032,-0.003,-0.0029,0.0111,0,-0.0579,-0.0622,-0.0599,-0.0622,-0.0639,-0.0585,-0.0568,-0.0524,-0.0471,-0.0424,-0.0342,-0.0296,-0.0256,-0.0231,-0.0175,-0.0081,-0.0026,-0.0089,0.0072,0.0077,0.0114,0.0145,0.017,0.0299,0.0122,0.0124,0.0125,0,-0.063,-0.0653,-0.0694,-0.0691,-0.069,-0.0688,-0.0646,-0.0624,-0.0536,-0.0492,-0.0421,-0.0354,-0.0266,-0.024,-0.0078,-0.012,-0.0033,0.0042,0.0049,0.0111,0.0139,0.0274,0.0325,0.0462,0.0142,0.0141,0.014,0,-0.0692,-0.0713,-0.0751,-0.0752,-0.074,-0.0737,-0.0719,-0.0648,-0.0623,-0.0533,-0.0496,-0.0383,-0.0321,-0.02,-0.0043,-0.0061,0.0143,0.0139,0.0263,0.0267,0.0332,0.034,0.0534,0.0248,0.0248,0.0248,0.0247,0,-0.0753,-0.0779,-0.0786,-0.0809,-0.084,-0.0801,-0.0802,-0.076,-0.069,-0.0652,-0.0541,-0.0477,-0.031,-0.017,-0.0042,0.0157,0.0149,0.0272,0.031,0.0317,0.0321,0.0477,0.0519,0.0253,0.0252,0.0251,0.025,0,-0.0816,-0.082,-0.0866,-0.0873,-0.0876,-0.0898,-0.0873,-0.0865,-0.0785,-0.073,-0.0704,-0.0538,-0.0347,-0.0161,0.0057,0.0166,0.0435,0.0412,0.0412,0.0447,0.0665,0.0702,0.0926,0.1004,0.0564,0.0566,0.0568,0,-0.0852,-0.0886,-0.0926,-0.0958,-0.0966,-0.0984,-0.0992,-0.0928,-0.0905,-0.0758,-0.0733,-0.0537,-0.0379,-0.0029,0.0201,0.0454,0.0546,0.061,0.0574,0.0699,0.0769,0.0793,0.0843,0.0649,0.0652,0.0653,0.0655,0,-0.0919,-0.0933,-0.0971,-0.1045,-0.1074,-0.1098,-0.1095,-0.1092,-0.0994,-0.091,-0.0758,-0.0616,-0.0264,0.0047,0.0374,0.052,0.0708,0.0652,0.0791,0.0864,0.0896,0.098,0.0535,0.0671,0.0669,0.0668,0.0667,0.0666,-0.0957,-0.1007,-0.106,-0.1122,-0.1162,-0.1193,-0.1199,-0.1161,-0.1101,-0.0944,-0.0799,-0.054,-0.0097,0.0378,0.0549,0.0903,0.086,0.0993,0.1033,0.1051,0.1113,0.0702,0.0868,0.0867,0.0867,0.0866,0.0866,0,-0.1002,-0.1058,-0.1132,-0.1201,-0.1253,-0.125,-0.1248,-0.121,-0.1126,-0.0946,-0.0759,-0.0249,0.0186,0.0586,0.1087,0.1273,0.1302,0.1365,0.1409,0.1445,0.1103,0.1092,0.1303,0.1303,0.1303,0.1303,0.1303,0.1303,-0.1027,-0.111,-0.1152,-0.1254,-0.1299,-0.1325,-0.1315,-0.1223,-0.1085,-0.0764,-0.046,-0.0215,0.0359,0.1151,0.1605,0.1642,0.1785,0.1773,0.1856,0.1617,0.1585,0.1554,0.1558,0.1863,0.1864,0.2185,0.2188,0.2191]}],[{"header":{"parameterUnit":"m.s-1","parameterCategory":2,"la1":30.2991,"la2":30.254,"lo1":-89.0895,"lo2":-89.0444,"dy":0.0017,"dx":0.0017,"nx":28,"ny":28,"refTime":"2026-02-14T03:00:00:Z","depth":"2","parameterNumber":2,"parameterNumberName":"U-component_of_CURRENTS"},"data":[0,0,0,0,0,0,0,0,0,0,0,0,0,0,0,0,0,0,0,0,0,0,0,0,0,0,0,0,0,0,0,0,0,0,0,0,0,0,0,0,0,0,0,0,0,0,0,0,0,0,0,0,0,0,0,0,0,0,-0.2428,-0.2428,0,-0.2452,-0.2452,-0.2452,-0.2438,-0.2438,-0.2437,-0.2437,-0.2432,-0.2432,-0.2432,0,0,0,0,0,0,0,0,0,0,0,0,0,-0.2365,-0.2366,-0.2428,-0.2428,-0.2429,-0.2452,-0.2452,-0.2452,-0.2439,-0.2438,-0.2437,-0.2437,-0.2431,-0.2432,-0.2432,0,0,0,0,0,0,0,0,0,0,0,0,0,-0.2389,-0.2366,-0.2428,-0.2426,-0.2427,-0.2452,-0.2452,-0.2452,-0.2439,-0.2438,-0.2437,-0.2437,-0.2431,-0.2432,-0.2432,-0.2449,0,0,-0.2434,-0.2434,0,0,0,0,0,0,0,0,-0.2387,-0.2391,-0.2426,-0.2426,-0.2427,-0.2443,-0.2428,-0.2451,-0.2439,-0.2432,-0.2437,-0.2436,-0.2435,-0.2435,-0.2438,-0.2449,-0.2449,-0.2434,-0.2434,-0.2434,-0.2434,0,0,0,0,0,0,0,-0.2386,-0.239,-0.2435,-0.2427,-0.2427,-0.2423,-0.2426,-0.2432,-0.2435,-0.2432,-0.2432,-0.2438,-0.2434,-0.2438,-0.2438,-0.2449,-0.2434,-0.2434,-0.2434,-0.2435,-0.2469,-0.247,0,0,0,0,0,0,-0.2389,-0.2388,-0.2434,-0.2436,-0.2407,-0.2425,-0.2428,-0.2437,-0.2435,-0.2435,-0.2439,-0.2438,-0.2438,-0.2438,-0.2438,-0.2461,-0.2434,-0.2435,-0.2435,-0.2469,-0.2469,-0.247,0,0,0,0,0,0,-0.2387,-0.2393,-0.2433,-0.2414,-0.2419,-0.2427,-0.2438,-0.2438,-0.2445,-0.2441,-0.244,-0.2446,-0.2437,-0.2437,-0.2446,-0.246,-0.2435,-0.2435,-0.2468,-0.2469,-0.247,-0.2505,0,0,0,0,0,0,-0.2385,-0.2392,-0.2397,-0.2415,-0.2421,-0.2453,-0.2439,-0.2439,-0.2451,-0.2449,-0.2447,-0.2445,-0.2436,-0.2446,-0.2447,-0.2461,-0.2436,-0.2467,-0.2468,-0.2469,-0.2503,-0.2507,-0.2511,0,0,0,0,0,-0.2383,-0.2395,-0.2398,-0.2403,-0.2429,-0.2454,-0.2457,-0.2458,-0.2452,-0.246,-0.2456,-0.2446,-0.2454,-0.2447,-0.2448,-0.2462,-0.2466,-0.2468,-0.2469,-0.2502,-0.2507,-0.2511,0,0,0,0,0,0,-0.2369,-0.2396,-0.2398,-0.2417,-0.2437,-0.2453,-0.246,-0.2465,-0.2469,-0.2466,-0.2457,-0.2456,-0.2468,-0.2462,-0.2454,-0.2475,-0.2458,-0.246,-0.2482,-0.2487,-0.2491,-0.2492,-0.2436,0,0,0,0,0,-0.237,-0.2384,-0.2411,-0.2424,-0.2436,-0.245,-0.246,-0.2465,-0.2474,-0.2475,-0.2475,-0.2473,-0.2476,-0.2478,-0.248,-0.2495,-0.2474,-0.2504,-0.2508,-0.2511,-0.2513,-0.2494,-0.2496,-0.2475,-0.2475,-0.2475,0,0,-0.2367,-0.2384,-0.2391,-0.2422,-0.2434,-0.2459,-0.2453,-0.2475,-0.2492,-0.2475,-0.2492,-0.2488,-0.2483,-0.2497,-0.2502,-0.2493,-0.2505,-0.2513,-0.2515,-0.2515,-0.2496,-0.2498,-0.25,-0.2476,-0.2476,-0.2476,0,0,-0.2371,-0.2386,-0.2401,-0.2424,-0.2452,-0.2466,-0.2476,-0.25,-0.2506,-0.2527,-0.2516,-0.2519,-0.2529,-0.2526,-0.2525,-0.2552,-0.2526,-0.2556,-0.2577,-0.2559,-0.2561,-0.2562,-0.2533,-0.2531,-0.2557,-0.2557,-0.2557,0,-0.2365,-0.2389,-0.2409,-0.2435,-0.2452,-0.2472,-0.2496,-0.2513,-0.2535,-0.254,-0.2535,-0.2545,-0.2542,-0.2552,-0.2563,-0.2561,-0.2542,-0.256,-0.2564,-0.2564,-0.2565,-0.2534,-0.2532,-0.2559,-0.2559,-0.2559,-0.2559,0,-0.2383,-0.2407,-0.242,-0.2457,-0.2481,-0.2504,-0.2536,-0.2556,-0.2565,-0.2575,-0.2589,-0.2585,-0.2586,-0.2591,-0.2587,-0.2594,-0.2577,-0.257,-0.2551,-0.2569,-0.2536,-0.2533,-0.2562,-0.2561,-0.2561,-0.256,0,0,-0.2355,-0.2419,-0.2422,-0.2443,-0.2494,-0.2513,-0.2551,-0.2581,-0.2598,-0.2614,-0.2627,-0.2636,-0.2629,-0.2628,-0.2623,-0.2615,-0.2603,-0.2599,-0.2597,-0.2568,-0.2555,-0.2491,-0.248,-0.2597,-0.2596,-0.2596,-0.2529,0,-0.2358,-0.2404,-0.2438,-0.2479,-0.2504,-0.2541,-0.2574,-0.2605,-0.2624,-0.2644,-0.2643,-0.2653,-0.2645,-0.2646,-0.2639,-0.2618,-0.2597,-0.2621,-0.2544,-0.2542,-0.248,-0.2475,-0.2312,-0.2234,-0.2525,-0.2525,-0.2524,0,-0.2355,-0.2389,-0.2429,-0.2488,-0.2503,-0.2532,-0.2578,-0.2611,-0.2648,-0.2663,-0.2673,-0.2674,-0.2676,-0.2662,-0.2624,-0.2641,-0.26,-0.2576,-0.2572,-0.2497,-0.2471,-0.2264,-0.2217,-0.2518,-0.2519,-0.2519,-0.252,0,-0.2308,-0.2376,-0.2404,-0.2426,-0.25,-0.2522,-0.2558,-0.2607,-0.2631,-0.267,-0.2683,-0.2687,-0.268,-0.2649,-0.2606,-0.2615,-0.2551,-0.2551,-0.2447,-0.2442,-0.228,-0.226,-0.2505,-0.2506,-0.2506,-0.2506,-0.2506,0,-0.2288,-0.2308,-0.2385,-0.24,-0.243,-0.2496,-0.2527,-0.2568,-0.2622,-0.2639,-0.2681,-0.2684,-0.2676,-0.2645,-0.2606,-0.2512,-0.2543,-0.2444,-0.2419,-0.2287,-0.227,-0.2502,-0.2503,-0.2503,-0.2504,-0.2504,-0.2505,0,-0.222,-0.2277,-0.2307,-0.2385,-0.2407,-0.2424,-0.25,-0.2522,-0.2589,-0.2614,-0.2626,-0.2668,-0.263,-0.2603,-0.2544,-0.2492,-0.2425,-0.2377,-0.222,-0.2178,-0.2326,-0.233,-0.2257,-0.2254,-0.2252,-0.225,-0.2248,0,-0.2185,-0.2195,-0.2269,-0.2284,-0.2315,-0.2359,-0.2387,-0.248,-0.2507,-0.2591,-0.2589,-0.2589,-0.2548,-0.2451,-0.2374,-0.2275,-0.2338,-0.2065,-0.2053,-0.2317,-0.2301,-0.2308,-0.2314,-0.1846,-0.1841,-0.1837,-0.1834,0,-0.2103,-0.2132,-0.2156,-0.2188,-0.2218,-0.2251,-0.2303,-0.232,-0.2423,-0.2446,-0.2459,-0.2439,-0.2382,-0.2212,-0.2109,-0.2036,-0.2076,-0.1981,-0.2277,-0.1947,-0.1927,-0.1913,-0.1932,-0.1799,-0.1802,-0.1805,-0.1807,-0.1808,-0.2023,-0.2017,-0.205,-0.2063,-0.2098,-0.2106,-0.2085,-0.2151,-0.216,-0.216,-0.2252,-0.2164,-0.2142,-0.19,-0.1793,-0.1715,-0.1856,-0.1761,-0.1774,-0.1791,-0.1768,-0.1746,-0.1579,-0.1581,-0.1583,-0.1584,-0.1586,0,-0.1906,-0.1914,-0.1922,-0.1931,-0.1906,-0.1973,-0.1992,-0.1942,-0.1895,-0.1933,-0.1911,-0.1707,-0.1597,-0.1581,-0.1416,-0.1379,-0.1369,-0.1309,-0.13,-0.1336,-0.1368,-0.1325,-0.1017,-0.1015,-0.1013,-0.1011,0,0,-0.1844,-0.1804,-0.1805,-0.1721,-0.1727,-0.1642,-0.1616,-0.1566,-0.1552,-0.1456,-0.1416,-0.1521,-0.1548,-0.1287,-0.1221,-0.1095,-0.1202,-0.1037,-0.1496,-0.1523,-0.1552,-0.1632,-0.1606,0,0,0,0,0]},{"header":{"parameterUnit":"m.s-1","parameterCategory":2,"la1":30.2991,"la2":30.254,"lo1":-89.0895,"lo2":-89.0444,"dy":0.0017,"dx":0.0017,"nx":28,"ny":28,"refTime":"2026-02-14T03:00:00:Z","depth":"2","parameterNumber":3,"parameterNumberName":"V-component_of_CURRENTS"},"data":[0,0,0,0,0,0,0,0,0,0,0,0,0,0,0,0,0,0,0,0,0,0,0,0,0,0,0,0,0,0,0,0,0,0,0,0,0,0,0,0,0,0,0,0,0,0,0,0,0,0,0,0,0,0,0,0,0,0,-0.0385,-0.0385,0,-0.0328,-0.0327,-0.0327,-0.0284,-0.0283,-0.0283,-0.0283,-0.0185,-0.0183,-0.018,0,0,0,0,0,0,0,0,0,0,0,0,0,-0.0412,-0.0412,-0.0386,-0.0385,-0.0384,-0.0328,-0.0327,-0.0326,-0.0284,-0.0283,-0.0283,-0.0283,-0.0186,-0.0183,-0.018,0,0,0,0,0,0,0,0,0,0,0,0,0,-0.0381,-0.0412,-0.0386,-0.0357,-0.0354,-0.0328,-0.0327,-0.0326,-0.0284,-0.0283,-0.0283,-0.0282,-0.0187,-0.0183,-0.018,-0.0167,0,0,-0.0169,-0.0168,0,0,0,0,0,0,0,0,-0.0383,-0.038,-0.0362,-0.0359,-0.0355,-0.0313,-0.0301,-0.0271,-0.0284,-0.0309,-0.0283,-0.0282,-0.0225,-0.0218,-0.0208,-0.0163,-0.0159,-0.0169,-0.0167,-0.0165,-0.0164,0,0,0,0,0,0,0,-0.0385,-0.0382,-0.0362,-0.0361,-0.0357,-0.0331,-0.0326,-0.0295,-0.0269,-0.0307,-0.0304,-0.0299,-0.0223,-0.0211,-0.0205,-0.0157,-0.0169,-0.0166,-0.0164,-0.0162,-0.0091,-0.0091,0,0,0,0,0,0,-0.0397,-0.0385,-0.0364,-0.036,-0.0369,-0.0331,-0.0326,-0.0326,-0.027,-0.0262,-0.03,-0.0298,-0.0218,-0.0209,-0.0202,-0.0177,-0.0165,-0.0162,-0.016,-0.0091,-0.0091,-0.0091,0,0,0,0,0,0,-0.0398,-0.0396,-0.0366,-0.0371,-0.0366,-0.0332,-0.0332,-0.0326,-0.0314,-0.0265,-0.0256,-0.0295,-0.0217,-0.0206,-0.0175,-0.0173,-0.016,-0.0157,-0.0091,-0.0091,-0.0091,-0.0132,0,0,0,0,0,0,-0.0399,-0.0397,-0.0402,-0.0373,-0.0366,-0.0356,-0.0332,-0.0325,-0.0312,-0.0308,-0.0258,-0.0248,-0.0216,-0.0181,-0.0172,-0.0168,-0.0155,-0.009,-0.0091,-0.0091,-0.0131,-0.0134,-0.0137,0,0,0,0,0,-0.0401,-0.0413,-0.0403,-0.04,-0.0374,-0.0357,-0.0351,-0.0324,-0.0312,-0.0311,-0.0276,-0.025,-0.0177,-0.0178,-0.0168,-0.0163,-0.009,-0.0091,-0.0091,-0.0129,-0.0133,-0.0137,0,0,0,0,0,0,-0.0428,-0.0409,-0.0397,-0.0403,-0.0383,-0.035,-0.0348,-0.0329,-0.03,-0.0297,-0.025,-0.0238,-0.021,-0.0184,-0.0187,-0.0145,-0.013,-0.0128,-0.0163,-0.0166,-0.0169,-0.0178,-0.0152,0,0,0,0,0,-0.0437,-0.0441,-0.0415,-0.0419,-0.0412,-0.0381,-0.037,-0.0353,-0.0324,-0.0312,-0.0275,-0.0238,-0.0205,-0.0184,-0.0153,-0.0128,-0.0093,-0.012,-0.0123,-0.0126,-0.0127,-0.0076,-0.0074,-0.0093,-0.0093,-0.0093,0,0,-0.0448,-0.0439,-0.044,-0.0425,-0.0408,-0.0405,-0.0373,-0.0364,-0.0356,-0.0305,-0.0284,-0.0247,-0.0202,-0.0175,-0.016,-0.0151,-0.0101,-0.0126,-0.0129,-0.0128,-0.0076,-0.0074,-0.0073,-0.0093,-0.0093,-0.0093,0,0,-0.0478,-0.0465,-0.0479,-0.0467,-0.0448,-0.0426,-0.0426,-0.0394,-0.0375,-0.0351,-0.0312,-0.0275,-0.0229,-0.019,-0.0166,-0.0168,-0.0121,-0.0161,-0.0178,-0.0129,-0.0127,-0.0125,-0.0074,-0.0067,-0.0159,-0.016,-0.016,0,-0.0493,-0.0507,-0.048,-0.0489,-0.0482,-0.044,-0.045,-0.0423,-0.0384,-0.0365,-0.0352,-0.0273,-0.0235,-0.019,-0.0191,-0.0173,-0.0139,-0.0168,-0.0133,-0.013,-0.0126,-0.0075,-0.0066,-0.0162,-0.0161,-0.0161,-0.0161,0,-0.0532,-0.054,-0.0547,-0.0543,-0.053,-0.0533,-0.0495,-0.0476,-0.0446,-0.0412,-0.0365,-0.0309,-0.0261,-0.0242,-0.0216,-0.0175,-0.0156,-0.0144,-0.0124,-0.0127,-0.0072,-0.0063,-0.0164,-0.0164,-0.0163,-0.0163,0,0,-0.0573,-0.0576,-0.0578,-0.0587,-0.0561,-0.0557,-0.0539,-0.0507,-0.0491,-0.044,-0.041,-0.0346,-0.0308,-0.0279,-0.0234,-0.0188,-0.0135,-0.0162,-0.0159,-0.0112,-0.0023,0.0012,0.0026,-0.0118,-0.0117,-0.0116,0.0007,0,-0.0612,-0.065,-0.0631,-0.0653,-0.0668,-0.0621,-0.0607,-0.0568,-0.0521,-0.0479,-0.0404,-0.0361,-0.0323,-0.03,-0.0247,-0.0163,-0.0113,-0.0169,-0.0026,-0.0022,0.0009,0.0037,0.0011,0.012,0.0017,0.0019,0.002,0,-0.0656,-0.0677,-0.0714,-0.0714,-0.0713,-0.0713,-0.0679,-0.066,-0.0582,-0.0543,-0.0477,-0.0415,-0.0333,-0.0307,-0.016,-0.0199,-0.0119,-0.0052,-0.0045,0.0008,0.0031,0.0107,0.0142,0.0036,0.0035,0.0034,0.0033,0,-0.071,-0.073,-0.0765,-0.0766,-0.0758,-0.0757,-0.0743,-0.0682,-0.0661,-0.058,-0.0549,-0.0443,-0.0387,-0.0275,-0.0132,-0.0147,0.0035,0.0032,0.0144,0.0147,0.0164,0.0167,0.0134,0.0134,0.0134,0.0133,0.0133,0,-0.0763,-0.0787,-0.0796,-0.0818,-0.0848,-0.0814,-0.0819,-0.0783,-0.0723,-0.0694,-0.0589,-0.0535,-0.0377,-0.0252,-0.0133,0.0046,0.0039,0.0152,0.0186,0.015,0.015,0.0103,0.0098,0.0138,0.0137,0.0136,0.0135,0,-0.0817,-0.0823,-0.0866,-0.0875,-0.088,-0.0901,-0.0886,-0.0882,-0.0812,-0.0769,-0.0745,-0.0596,-0.0425,-0.0252,-0.0052,0.0048,0.021,0.0272,0.0224,0.0249,0.0287,0.0279,0.0404,0.0406,0.0408,0.041,0.0411,0,-0.0849,-0.088,-0.092,-0.0952,-0.0961,-0.0982,-0.0993,-0.0939,-0.0923,-0.08,-0.078,-0.0605,-0.0467,-0.0149,0.0063,0.0296,0.0284,0.0395,0.036,0.0298,0.0317,0.0305,0.0294,0.0371,0.0371,0.0372,0.0373,0,-0.0907,-0.0921,-0.0958,-0.103,-0.1062,-0.1088,-0.1092,-0.1093,-0.1012,-0.0943,-0.0815,-0.0691,-0.0376,-0.0114,0.0187,0.0314,0.0354,0.0418,0.0384,0.03,0.0275,0.0291,0.0279,0.038,0.0379,0.0379,0.0378,0.0378,-0.094,-0.0986,-0.1038,-0.11,-0.1142,-0.1177,-0.1188,-0.1159,-0.1113,-0.0979,-0.0858,-0.0632,-0.0384,0.0055,0.0266,0.046,0.0447,0.0483,0.0477,0.0471,0.0439,0.0419,0.0545,0.0545,0.0545,0.0546,0.0546,0,-0.0981,-0.1034,-0.1104,-0.1174,-0.1227,-0.1229,-0.1236,-0.1204,-0.1136,-0.098,-0.0821,-0.0521,-0.0218,0.0048,0.0361,0.0537,0.0511,0.056,0.0486,0.0479,0.0472,0.0436,0.0544,0.0545,0.0545,0.0545,0,0,-0.1004,-0.1081,-0.1121,-0.1222,-0.127,-0.1302,-0.1298,-0.1217,-0.1096,-0.0919,-0.0738,-0.0516,-0.0199,0.0017,0.0242,0.0407,0.0394,0.042,0.0403,0.0283,0.0275,0.0412,0.0348,0,0,0,0,0]}],[{"header":{"parameterUnit":"m.s-1","parameterCategory":2,"la1":30.2991,"la2":30.254,"lo1":-89.0895,"lo2":-89.0444,"dy":0.0017,"dx":0.0017,"nx":28,"ny":28,"refTime":"2026-02-14T03:00:00:Z","depth":"4","parameterNumber":2,"parameterNumberName":"U-component_of_CURRENTS"},"data":[0,0,0,0,0,0,0,0,0,0,0,0,0,0,0,0,0,0,0,0,0,0,0,0,0,0,0,0,0,0,0,0,0,0,0,0,0,0,0,0,0,0,0,0,0,0,0,0,0,0,0,0,0,0,0,0,0,0,-0.1633,-0.1634,0,-0.1692,-0.1693,-0.1693,-0.1731,-0.1732,-0.1732,-0.1733,-0.1795,-0.1796,-0.1798,0,0,0,0,0,0,0,0,0,0,0,0,0,-0.155,-0.1551,-0.1633,-0.1634,-0.1635,-0.1692,-0.1693,-0.1693,-0.1731,-0.1732,-0.1732,-0.1733,-0.1795,-0.1796,-0.1798,0,0,0,0,0,0,0,0,0,0,0,0,0,-0.1594,-0.1552,-0.1633,-0.1662,-0.1665,-0.1692,-0.1693,-0.1694,-0.1731,-0.1732,-0.1732,-0.1733,-0.1794,-0.1796,-0.1798,-0.1799,0,0,-0.1804,-0.1805,0,0,0,0,0,0,0,0,-0.1591,-0.1597,-0.1657,-0.166,-0.1664,-0.1706,-0.1687,-0.1729,-0.1731,-0.1704,-0.1733,-0.1733,-0.1766,-0.1771,-0.1778,-0.1802,-0.1804,-0.1804,-0.1805,-0.1806,-0.1807,0,0,0,0,0,0,0,-0.1588,-0.1594,-0.1655,-0.1658,-0.1662,-0.1671,-0.1678,-0.1695,-0.173,-0.1707,-0.171,-0.1719,-0.1768,-0.1776,-0.178,-0.1805,-0.1804,-0.1806,-0.1807,-0.1808,-0.1899,-0.19,0,0,0,0,0,0,-0.1584,-0.1592,-0.1653,-0.1657,-0.163,-0.1672,-0.1679,-0.1691,-0.173,-0.1737,-0.1718,-0.1721,-0.1773,-0.1778,-0.1782,-0.1854,-0.1806,-0.1808,-0.1809,-0.1898,-0.1899,-0.19,0,0,0,0,0,0,-0.1582,-0.1589,-0.1651,-0.1627,-0.1635,-0.1673,-0.1685,-0.1692,-0.1729,-0.1739,-0.1746,-0.1753,-0.1773,-0.178,-0.1823,-0.1854,-0.1809,-0.1811,-0.1896,-0.1898,-0.19,-0.1953,0,0,0,0,0,0,-0.1579,-0.1588,-0.1608,-0.1626,-0.1637,-0.1686,-0.1685,-0.1693,-0.1733,-0.1737,-0.1771,-0.1775,-0.1774,-0.1821,-0.1825,-0.1856,-0.1812,-0.1895,-0.1897,-0.1899,-0.1949,-0.1956,-0.1962,0,0,0,0,0,-0.1576,-0.1596,-0.1608,-0.1617,-0.1658,-0.1687,-0.1694,-0.172,-0.1734,-0.1756,-0.178,-0.1776,-0.1838,-0.1823,-0.1829,-0.186,-0.1894,-0.1896,-0.1899,-0.1946,-0.1955,-0.1962,0,0,0,0,0,0,-0.1571,-0.1603,-0.1616,-0.1646,-0.1674,-0.1695,-0.1721,-0.1738,-0.1774,-0.1787,-0.1794,-0.1801,-0.1849,-0.1848,-0.1831,-0.1892,-0.1865,-0.1869,-0.1899,-0.1907,-0.1913,-0.191,-0.1814,0,0,0,0,0,-0.1578,-0.1604,-0.1632,-0.1659,-0.1676,-0.1705,-0.1726,-0.1746,-0.1773,-0.1791,-0.1816,-0.1839,-0.1859,-0.1879,-0.1895,-0.1933,-0.1909,-0.1955,-0.1962,-0.1967,-0.1968,-0.1957,-0.1962,-0.191,-0.191,-0.191,0,0,-0.1585,-0.1606,-0.1622,-0.1661,-0.1686,-0.1718,-0.172,-0.1762,-0.1794,-0.1792,-0.1852,-0.1866,-0.1874,-0.1914,-0.1935,-0.1922,-0.1969,-0.197,-0.1975,-0.1973,-0.196,-0.1965,-0.1969,-0.1911,-0.1911,-0.1911,0,0,-0.16,-0.1631,-0.1656,-0.1684,-0.1728,-0.1746,-0.1765,-0.1806,-0.1835,-0.1885,-0.189,-0.1921,-0.1963,-0.197,-0.1977,-0.2028,-0.2002,-0.2041,-0.2074,-0.2064,-0.2067,-0.207,-0.2043,-0.2043,-0.2045,-0.2045,-0.2045,0,-0.161,-0.1642,-0.1669,-0.17,-0.1728,-0.1763,-0.1797,-0.183,-0.1882,-0.1904,-0.1914,-0.1971,-0.1984,-0.2017,-0.2039,-0.2042,-0.2026,-0.2045,-0.2071,-0.2073,-0.2075,-0.2046,-0.2046,-0.2048,-0.2048,-0.2048,-0.2047,0,-0.1634,-0.1674,-0.1693,-0.1744,-0.1777,-0.1815,-0.1858,-0.1902,-0.1941,-0.1964,-0.2019,-0.2036,-0.2063,-0.2078,-0.2079,-0.2108,-0.2088,-0.2077,-0.2049,-0.2084,-0.2051,-0.2049,-0.2052,-0.2051,-0.205,-0.205,0,0,-0.1614,-0.1695,-0.1705,-0.1737,-0.1805,-0.1831,-0.1894,-0.1945,-0.1984,-0.2035,-0.2074,-0.2117,-0.2126,-0.2134,-0.214,-0.2141,-0.2147,-0.2126,-0.2124,-0.2093,-0.2114,-0.1989,-0.1975,-0.2144,-0.2144,-0.2144,-0.2083,0,-0.1626,-0.1687,-0.1728,-0.1793,-0.1826,-0.1882,-0.1933,-0.1987,-0.2033,-0.2081,-0.2104,-0.2143,-0.2147,-0.2166,-0.2171,-0.2157,-0.2147,-0.2164,-0.2089,-0.2087,-0.1967,-0.197,-0.2145,-0.2081,-0.2081,-0.208,-0.208,0,-0.1626,-0.167,-0.1735,-0.1816,-0.1838,-0.1887,-0.1966,-0.2017,-0.2084,-0.2119,-0.2158,-0.2176,-0.2203,-0.2194,-0.2179,-0.2192,-0.2159,-0.2139,-0.2135,-0.1998,-0.1959,-0.204,-0.2077,-0.2077,-0.2077,-0.2078,-0.2078,0,-0.1578,-0.167,-0.1722,-0.1753,-0.1851,-0.1897,-0.1953,-0.203,-0.2068,-0.2143,-0.2168,-0.2202,-0.2215,-0.2197,-0.2168,-0.2177,-0.2128,-0.2126,-0.1976,-0.1967,-0.2075,-0.2072,-0.2096,-0.2097,-0.2097,-0.2097,-0.2097,0,-0.1553,-0.1598,-0.1712,-0.1739,-0.1802,-0.1883,-0.195,-0.2009,-0.2085,-0.2112,-0.2182,-0.2189,-0.2218,-0.2197,-0.2168,-0.2058,-0.2121,-0.1971,-0.194,-0.2099,-0.2099,-0.2073,-0.2071,-0.2095,-0.2095,-0.2095,-0.2096,0,-0.1481,-0.1561,-0.1624,-0.1741,-0.1781,-0.1826,-0.1938,-0.1972,-0.2063,-0.2098,-0.212,-0.2178,-0.2147,-0.2145,-0.2103,-0.2031,-0.1957,-0.19,-0.206,-0.204,-0.1803,-0.1805,-0.172,-0.1715,-0.1711,-0.1707,-0.1704,0,-0.1444,-0.1473,-0.1604,-0.1639,-0.1698,-0.1781,-0.1827,-0.1942,-0.1969,-0.2063,-0.2055,-0.2075,-0.209,-0.1917,-0.1947,-0.186,-0.1838,-0.1785,-0.1804,-0.1785,-0.1764,-0.1772,-0.178,-0.1697,-0.1696,-0.1695,-0.1694,0,-0.1364,-0.1427,-0.1478,-0.1551,-0.1615,-0.1668,-0.1745,-0.1749,-0.186,-0.1966,-0.1923,-0.1895,-0.1853,-0.1815,-0.1756,-0.1703,-0.1817,-0.1741,-0.175,-0.1767,-0.1757,-0.1742,-0.1754,-0.1679,-0.1681,-0.1683,-0.1684,0,-0.13,-0.1314,-0.1388,-0.1434,-0.1507,-0.1516,-0.158,-0.1603,-0.1644,-0.1757,-0.1737,-0.1764,-0.1829,-0.1731,-0.1683,-0.1617,-0.1592,-0.1535,-0.1554,-0.1571,-0.1552,-0.152,-0.1329,0,0,0,0,0,-0.1225,-0.1222,-0.1259,-0.13,-0.1366,-0.1401,-0.1499,-0.1565,-0.1678,-0.1598,-0.1662,-0.1618,-0.1552,-0.1575,-0.147,-0.1611,-0.1597,-0.1483,-0.1543,-0.1598,-0.1615,-0.1607,0,0,0,0,0,0,-0.1172,-0.1204,-0.121,-0.1169,-0.1168,-0.1218,-0.127,-0.1355,-0.1323,-0.1445,-0.1413,-0.1512,-0.1467,-0.1572,-0.1431,-0.1436,-0.1437,-0.1517,-0.1512,-0.1589,-0.1604,-0.1618,-0.1615,0,0,0,0,0]},{"header":{"parameterUnit":"m.s-1","parameterCategory":2,"la1":30.2991,"la2":30.254,"lo1":-89.0895,"lo2":-89.0444,"dy":0.0017,"dx":0.0017,"nx":28,"ny":28,"refTime":"2026-02-14T03:00:00:Z","depth":"4","parameterNumber":3,"parameterNumberName":"V-component_of_CURRENTS"},"data":[0,0,0,0,0,0,0,0,0,0,0,0,0,0,0,0,0,0,0,0,0,0,0,0,0,0,0,0,0,0,0,0,0,0,0,0,0,0,0,0,0,0,0,0,0,0,0,0,0,0,0,0,0,0,0,0,0,0,-0.0327,-0.0327,0,-0.0295,-0.0295,-0.0295,-0.0271,-0.0271,-0.0271,-0.0271,-0.0204,-0.0202,-0.0201,0,0,0,0,0,0,0,0,0,0,0,0,0,-0.0332,-0.0332,-0.0327,-0.0327,-0.0327,-0.0296,-0.0295,-0.0294,-0.0272,-0.0271,-0.0271,-0.0271,-0.0205,-0.0203,-0.0201,0,0,0,0,0,0,0,0,0,0,0,0,0,-0.0317,-0.0332,-0.0327,-0.0312,-0.031,-0.0296,-0.0295,-0.0294,-0.0272,-0.0271,-0.0271,-0.0271,-0.0205,-0.0203,-0.02,-0.0189,0,0,-0.0193,-0.0192,0,0,0,0,0,0,0,0,-0.0318,-0.0317,-0.0315,-0.0313,-0.0311,-0.0288,-0.0272,-0.0258,-0.0272,-0.0286,-0.0271,-0.0271,-0.0229,-0.0225,-0.0219,-0.0186,-0.0183,-0.0193,-0.0191,-0.019,-0.0189,0,0,0,0,0,0,0,-0.0319,-0.0318,-0.0314,-0.0314,-0.0312,-0.0294,-0.0292,-0.0269,-0.0258,-0.0284,-0.0283,-0.028,-0.0228,-0.0221,-0.0217,-0.0182,-0.0193,-0.019,-0.0189,-0.0188,-0.0139,-0.0139,0,0,0,0,0,0,-0.0327,-0.032,-0.0315,-0.0313,-0.0315,-0.0295,-0.0292,-0.0295,-0.0259,-0.0254,-0.0281,-0.0279,-0.0226,-0.022,-0.0215,-0.0201,-0.019,-0.0188,-0.0186,-0.0138,-0.0139,-0.0139,0,0,0,0,0,0,-0.0327,-0.0327,-0.0316,-0.0316,-0.0313,-0.0295,-0.0298,-0.0294,-0.0291,-0.0256,-0.025,-0.0282,-0.0225,-0.0218,-0.0198,-0.0198,-0.0186,-0.0184,-0.0138,-0.0138,-0.0139,-0.0172,0,0,0,0,0,0,-0.0328,-0.0328,-0.0335,-0.0317,-0.0314,-0.0314,-0.0298,-0.0294,-0.029,-0.0288,-0.0255,-0.0249,-0.0225,-0.0202,-0.0196,-0.0194,-0.0182,-0.0138,-0.0138,-0.0139,-0.017,-0.0173,-0.0175,0,0,0,0,0,-0.0328,-0.034,-0.0336,-0.0335,-0.0324,-0.0315,-0.0312,-0.0297,-0.0291,-0.0293,-0.0269,-0.025,-0.02,-0.0201,-0.0193,-0.019,-0.0138,-0.0138,-0.0139,-0.0169,-0.0173,-0.0175,0,0,0,0,0,0,-0.0347,-0.0339,-0.0333,-0.0343,-0.0332,-0.0311,-0.0313,-0.0302,-0.0286,-0.0285,-0.0251,-0.0243,-0.0226,-0.0206,-0.0207,-0.0178,-0.0166,-0.0165,-0.0192,-0.0195,-0.0197,-0.0203,-0.018,0,0,0,0,0,-0.0355,-0.0363,-0.0348,-0.0356,-0.0353,-0.0334,-0.033,-0.032,-0.0302,-0.0296,-0.0271,-0.0245,-0.0221,-0.0207,-0.0185,-0.0168,-0.014,-0.0162,-0.0165,-0.0167,-0.0167,-0.0126,-0.0125,-0.014,-0.014,-0.014,0,0,-0.0365,-0.0362,-0.0366,-0.0361,-0.0352,-0.0353,-0.0331,-0.033,-0.0327,-0.029,-0.0281,-0.0254,-0.022,-0.0202,-0.0192,-0.0184,-0.0148,-0.0168,-0.017,-0.0168,-0.0126,-0.0125,-0.0123,-0.0141,-0.014,-0.014,0,0,-0.0388,-0.0385,-0.0399,-0.0393,-0.0385,-0.0372,-0.0374,-0.0356,-0.0345,-0.0333,-0.0304,-0.0277,-0.0246,-0.0216,-0.0198,-0.0201,-0.0165,-0.0197,-0.021,-0.017,-0.0168,-0.0167,-0.0129,-0.0123,-0.0196,-0.0196,-0.0196,0,-0.0401,-0.0415,-0.04,-0.041,-0.0409,-0.0383,-0.0394,-0.0378,-0.0356,-0.0344,-0.0336,-0.0279,-0.0251,-0.0217,-0.0218,-0.0205,-0.0179,-0.0201,-0.0173,-0.0171,-0.0168,-0.013,-0.0123,-0.0197,-0.0197,-0.0197,-0.0197,0,-0.043,-0.0442,-0.045,-0.0453,-0.0448,-0.0454,-0.0431,-0.0423,-0.0406,-0.0383,-0.0351,-0.0309,-0.0274,-0.026,-0.0239,-0.0207,-0.0193,-0.0183,-0.0165,-0.0168,-0.0128,-0.012,-0.02,-0.0199,-0.0199,-0.0198,0,0,-0.0457,-0.047,-0.0473,-0.0485,-0.0473,-0.0475,-0.0467,-0.0449,-0.0443,-0.0408,-0.0389,-0.034,-0.0312,-0.0289,-0.0254,-0.0216,-0.0175,-0.0196,-0.0193,-0.0159,-0.0087,-0.0084,-0.0075,-0.016,-0.0159,-0.0158,-0.0066,0,-0.0485,-0.052,-0.0511,-0.0537,-0.0552,-0.0526,-0.0521,-0.0499,-0.047,-0.0444,-0.0385,-0.0356,-0.0324,-0.0308,-0.0264,-0.0198,-0.0157,-0.0201,-0.0089,-0.0086,-0.0082,-0.0067,-0.0155,-0.0061,-0.0059,-0.0058,-0.0057,0,-0.0514,-0.0535,-0.0572,-0.0585,-0.0588,-0.0597,-0.0585,-0.0576,-0.0524,-0.0498,-0.0449,-0.0402,-0.0336,-0.0314,-0.0197,-0.0227,-0.0163,-0.0109,-0.0104,-0.0084,-0.0068,-0.0056,-0.0043,-0.0044,-0.0045,-0.0046,-0.0047,0,-0.0545,-0.0574,-0.0609,-0.0615,-0.0624,-0.0633,-0.0633,-0.0597,-0.0588,-0.0532,-0.0513,-0.0427,-0.0385,-0.0293,-0.018,-0.0189,-0.0048,-0.0046,0.0022,0.0024,0.0007,0.0004,0.0037,0.0037,0.0037,0.0037,0.0037,0,-0.0575,-0.0603,-0.0633,-0.0654,-0.0692,-0.0677,-0.0698,-0.0678,-0.0643,-0.0627,-0.0548,-0.0509,-0.0379,-0.0281,-0.0183,-0.0054,-0.0047,0.0026,0.005,-0.001,-0.0015,0.0013,0.0008,0.004,0.004,0.0039,0.0038,0,-0.0601,-0.062,-0.0667,-0.0698,-0.0712,-0.074,-0.0756,-0.0761,-0.072,-0.0695,-0.0679,-0.0565,-0.0434,-0.0294,-0.0133,-0.0061,0.0063,0.0108,0.004,0.0057,0.0108,0.0101,0.0187,0.0188,0.0189,0.019,0.019,0,-0.0614,-0.0644,-0.0709,-0.0747,-0.0768,-0.0806,-0.0829,-0.0806,-0.0801,-0.0725,-0.0709,-0.0581,-0.0491,-0.025,-0.0115,0.0082,0.0105,0.0163,0.0131,0.0111,0.0125,0.0116,0.0109,0.0191,0.0192,0.0192,0.0192,0,-0.064,-0.0671,-0.0711,-0.0794,-0.0841,-0.0881,-0.0905,-0.0904,-0.086,-0.0829,-0.0713,-0.0579,-0.0425,-0.0244,-0.0084,0.0051,0.012,0.0172,0.017,0.0141,0.0117,0.0128,0.012,0.0195,0.0194,0.0194,0.0194,0,-0.0656,-0.0697,-0.076,-0.0825,-0.0892,-0.0929,-0.0941,-0.0913,-0.0893,-0.0795,-0.0759,-0.058,-0.0474,-0.0259,-0.0116,0.0024,0.0047,0.0074,0.0078,0.0077,0.0014,-0.0035,0.0023,0,0,0,0,0,-0.0665,-0.0713,-0.0784,-0.0855,-0.0922,-0.0953,-0.0975,-0.0969,-0.0929,-0.0849,-0.0795,-0.0643,-0.0405,-0.0299,-0.0158,-0.0124,0.0051,0.0042,0.0079,0.021,0.0207,0.0151,0,0,0,0,0,0,-0.0673,-0.0743,-0.0781,-0.0861,-0.0912,-0.0972,-0.0986,-0.0961,-0.0901,-0.0841,-0.0708,-0.0623,-0.039,-0.048,-0.0158,-0.0116,-0.0078,0.016,0.0162,0.0212,0.0209,0.0207,0.0148,0,0,0,0,0]}]]